カタログに戻る

STARLINK-34099

運用中通信VLEO
NORAD 63959·PAYLOAD·🇺🇸 United States

打ち上げ May 13, 2025 から Cape Canaveral Space Force Station

Loading…

次のパス (今後24時間)

TLE

最新Source: CelesTrak SupGP

元期: Sep 14, 2026, 20:46 UTC

1 63959C 25099H   26257.86576389  .00009935  00000+0  35982-3 0  2573
2 63959  43.0026 188.1659 0001459 260.4216 140.3758 15.27576684    17

AllMySatでSTARLINK-34099をリアルタイム追跡

Download on the App Store